| time (UTC) | temp F | wind direction | speed MPH | gust MPH | rain 1hr in | rain 24hr in | rain mn in | humidity % | barometer mb |
| 20260506142307 | 71 | 116 | 3.0 | 8.0 | 0.00 | 0.00 | 0.00 | 61 | 1012.8 |
| 20260506141809 | 70 | 144 | 3.0 | 7.0 | 0.00 | 0.00 | 0.00 | 62 | 1012.8 |
| 20260506141449 | 70 | 152 | 3.0 | 8.0 | 0.00 | 0.00 | 0.00 | 64 | 1012.8 |
| 20260506141305 | 70 | 150 | 3.0 | 8.0 | 0.00 | 0.00 | 0.00 | 62 | 1012.8 |
| 20260506140309 | 70 | 59 | 4.0 | 9.0 | 0.00 | 0.00 | 0.00 | 64 | 1012.8 |
| 20260506135805 | 70 | 162 | 4.0 | 10.0 | 0.00 | 0.00 | 0.00 | 64 | 1012.9 |
| 20260506135619 | 71 | 160 | 4.0 | 7.0 | 0.00 | 0.00 | 0.00 | 60 | 1012.9 |
| 20260506135319 | 70 | 131 | 4.0 | 8.0 | 0.00 | 0.00 | 0.00 | 62 | 1012.9 |
| 20260506134301 | 71 | 155 | 3.0 | 7.0 | 0.00 | 0.00 | 0.00 | 60 | 1013.0 |
| 20260506133805 | 70 | 126 | 3.0 | 7.0 | 0.00 | 0.00 | 0.00 | 60 | 1013.0 |
| 20260506133257 | 71 | 161 | 2.0 | 7.0 | 0.00 | 0.00 | 0.00 | 64 | 1013.0 |
| 20260506132802 | 70 | 121 | 3.0 | 7.0 | 0.00 | 0.00 | 0.00 | 66 | 1013.0 |
| 20260506132300 | 70 | 119 | 3.0 | 7.0 | 0.00 | 0.00 | 0.00 | 66 | 1013.0 |
| 20260506131756 | 70 | 119 | 3.0 | 7.0 | 0.00 | 0.00 | 0.00 | 67 | 1013.0 |
| 20260506131251 | 70 | 133 | 4.0 | 8.0 | 0.00 | 0.00 | 0.00 | 67 | 1013.1 |
| 20260506130753 | 70 | 145 | 4.0 | 8.0 | 0.00 | 0.00 | 0.00 | 67 | 1013.1 |
| 20260506130303 | 70 | 131 | 4.0 | 7.0 | 0.00 | 0.00 | 0.00 | 67 | 1013.1 |
| 20260506125944 | 70 | 137 | 5.0 | 8.0 | 0.00 | 0.00 | 0.00 | 68 | 1013.3 |
| 20260506125755 | 69 | 189 | 5.0 | 10.0 | 0.00 | 0.00 | 0.00 | 67 | 1013.3 |
| 20260506124757 | 70 | 168 | 5.0 | 11.0 | 0.00 | 0.00 | 0.00 | 68 | 1013.3 |
| 20260506124250 | 70 | 121 | 5.0 | 11.0 | 0.00 | 0.00 | 0.00 | 68 | 1013.4 |
| 20260506123746 | 70 | 124 | 5.0 | 10.0 | 0.00 | 0.00 | 0.00 | 67 | 1013.4 |
| 20260506123246 | 70 | 143 | 4.0 | 10.0 | 0.00 | 0.00 | 0.00 | 67 | 1013.4 |
| 20260506122741 | 71 | 127 | 4.0 | 7.0 | 0.00 | 0.00 | 0.00 | 66 | 1013.5 |
| 20260506122447 | 71 | 143 | 4.0 | 7.0 | 0.00 | 0.00 | 0.00 | 64 | 1013.8 |
| 20260506122241 | 70 | 127 | 4.0 | 7.0 | 0.00 | 0.00 | 0.00 | 65 | 1013.5 |
| 20260506121748 | 71 | 123 | 4.0 | 7.0 | 0.00 | 0.00 | 0.00 | 64 | 1013.5 |
| 20260506120749 | 71 | 127 | 4.0 | 7.0 | 0.00 | 0.00 | 0.00 | 63 | 1013.8 |
| 20260506120252 | 71 | 143 | 4.0 | 8.0 | 0.00 | 0.00 | 0.00 | 61 | 1013.8 |
| 20260506115233 | 71 | 134 | 4.0 | 8.0 | 0.00 | 0.00 | 0.00 | 60 | 1013.9 |
| 20260506114737 | 71 | 107 | 3.0 | 7.0 | 0.00 | 0.00 | 0.00 | 61 | 1013.9 |
| 20260506114230 | 71 | 179 | 3.0 | 7.0 | 0.00 | 0.00 | 0.00 | 63 | 1014.0 |
| 20260506113746 | 70 | 150 | 4.0 | 7.0 | 0.00 | 0.00 | 0.00 | 64 | 1014.0 |
| 20260506113239 | 70 | 113 | 4.0 | 7.0 | 0.00 | 0.00 | 0.00 | 66 | 1014.0 |
| 20260506112738 | 69 | 113 | 4.0 | 7.0 | 0.00 | 0.00 | 0.00 | 65 | 1014.0 |
| 20260506112358 | 69 | 152 | 4.0 | 7.0 | 0.00 | 0.00 | 0.00 | 65 | 1014.1 |
| 20260506112234 | 69 | 119 | 5.0 | 7.0 | 0.00 | 0.00 | 0.00 | 65 | 1014.0 |
| 20260506112152 | 69 | 134 | 5.0 | 7.0 | 0.00 | 0.00 | 0.00 | 65 | 1014.1 |
| 20260506111753 | 69 | 140 | 4.0 | 7.0 | 0.00 | 0.00 | 0.00 | 66 | 1014.0 |
| 20260506110740 | 69 | 113 | 5.0 | 7.0 | 0.00 | 0.00 | 0.00 | 66 | 1014.1 |
| 20260506105734 | 69 | 109 | 4.0 | 7.0 | 0.00 | 0.00 | 0.00 | 65 | 1014.1 |
| 20260506105232 | 69 | 136 | 5.0 | 8.0 | 0.00 | 0.00 | 0.00 | 65 | 1014.1 |
| 20260506104731 | 69 | 116 | 5.0 | 8.0 | 0.00 | 0.00 | 0.00 | 63 | 1014.1 |
| 20260506104228 | 69 | 117 | 5.0 | 8.0 | 0.00 | 0.00 | 0.00 | 62 | 1014.3 |
| 20260506103724 | 69 | 134 | 4.0 | 8.0 | 0.00 | 0.00 | 0.00 | 61 | 1014.3 |
| 20260506103417 | 69 | 124 | 4.0 | 6.0 | 0.00 | 0.00 | 0.00 | 59 | 1014.4 |
| 20260506103227 | 69 | 140 | 4.0 | 7.0 | 0.00 | 0.00 | 0.00 | 61 | 1014.3 |
| 20260506102508 | 70 | 130 | 2.0 | 6.0 | 0.00 | 0.00 | 0.00 | 61 | 1014.4 |
| 20260506102234 | 69 | 134 | 3.0 | 6.0 | 0.00 | 0.00 | 0.00 | 60 | 1014.4 |
| 20260506101218 | 71 | 138 | 1.0 | 6.0 | 0.00 | 0.00 | 0.00 | 65 | 1014.4 |
| 20260506100916 | 71 | 80 | 1.0 | 4.0 | 0.00 | 0.00 | 0.00 | 69 | 1014.4 |
| 20260506100726 | 71 | 169 | 1.0 | 4.0 | 0.00 | 0.00 | 0.00 | 67 | 1014.4 |
| 20260506095720 | 70 | 141 | 2.0 | 6.0 | 0.00 | 0.00 | 0.00 | 69 | 1014.6 |
| 20260506095217 | 69 | 110 | 3.0 | 6.0 | 0.00 | 0.00 | 0.00 | 69 | 1014.6 |
| 20260506094722 | 69 | 126 | 1.0 | 6.0 | 0.00 | 0.00 | 0.00 | 67 | 1014.6 |
| 20260506094215 | 69 | 133 | 1.0 | 5.0 | 0.00 | 0.00 | 0.00 | 69 | 1014.7 |
| 20260506093708 | 69 | 96 | 3.0 | 6.0 | 0.00 | 0.00 | 0.00 | 70 | 1014.7 |
| 20260506093210 | 68 | 99 | 3.0 | 6.0 | 0.00 | 0.00 | 0.00 | 69 | 1014.7 |
| 20260506092659 | 69 | 110 | 2.0 | 6.0 | 0.00 | 0.00 | 0.00 | 68 | 1014.7 |
| 20260506092159 | 69 | 90 | 1.0 | 3.0 | 0.00 | 0.00 | 0.00 | 68 | 1014.7 |
| 20260506091657 | 69 | 88 | 0.0 | 2.0 | 0.00 | 0.00 | 0.00 | 69 | 1014.7 |
| 20260506091209 | 69 | 138 | 1.0 | 3.0 | 0.00 | 0.00 | 0.00 | 69 | 1014.6 |
| 20260506090710 | 69 | 120 | 1.0 | 3.0 | 0.00 | 0.00 | 0.00 | 69 | 1014.6 |
| 20260506090203 | 68 | 116 | 2.0 | 4.0 | 0.00 | 0.00 | 0.00 | 68 | 1014.6 |
| 20260506085155 | 68 | 123 | 1.0 | 3.0 | 0.00 | 0.00 | 0.00 | 69 | 1014.7 |
| 20260506084859 | 67 | 97 | 2.0 | 5.0 | 0.00 | 0.00 | 0.00 | 69 | 1014.5 |
| 20260506084653 | 67 | 110 | 1.0 | 4.0 | 0.00 | 0.00 | 0.00 | 70 | 1014.6 |
| 20260506084600 | 67 | 100 | 1.0 | 3.0 | 0.00 | 0.00 | 0.00 | 69 | 1014.6 |
| 20260506084250 | 67 | 86 | 2.0 | 5.0 | 0.00 | 0.00 | 0.00 | 70 | 1014.5 |
| 20260506082639 | 67 | 106 | 1.0 | 3.0 | 0.00 | 0.00 | 0.00 | 69 | 1014.5 |
| 20260506082345 | 67 | 104 | 0.0 | 3.0 | 0.00 | 0.00 | 0.00 | 70 | 1014.7 |
| 20260506082200 | 67 | 106 | 1.0 | 3.0 | 0.00 | 0.00 | 0.00 | 69 | 1014.5 |
| 20260506081703 | 67 | 106 | 1.0 | 3.0 | 0.00 | 0.00 | 0.00 | 69 | 1014.5 |
| 20260506080636 | 67 | 103 | 1.0 | 3.0 | 0.00 | 0.00 | 0.00 | 70 | 1014.7 |
| 20260506080456 | 66 | 38 | 1.0 | 5.0 | 0.00 | 0.00 | 0.00 | 69 | 1014.5 |
| 20260506080344 | 66 | 44 | 2.0 | 6.0 | 0.00 | 0.00 | 0.00 | 69 | 1014.5 |
| 20260506080147 | 67 | 117 | 2.0 | 5.0 | 0.00 | 0.00 | 0.00 | 70 | 1014.7 |
| 20260506073030 | 66 | 82 | 1.0 | 6.0 | 0.00 | 0.00 | 0.00 | 70 | 1014.5 |
| 20260506072646 | 65 | 1 | 3.0 | 7.0 | 0.00 | 0.00 | 0.00 | 71 | 1014.5 |
| 20260506072123 | 65 | 13 | 4.0 | 7.0 | 0.00 | 0.00 | 0.00 | 72 | 1014.5 |
| 20260506070712 | 64 | 4 | 5.0 | 7.0 | 0.00 | 0.00 | 0.00 | 72 | 1014.7 |
| 20260506062112 | 64 | 359 | 4.0 | 8.0 | 0.00 | 0.00 | 0.00 | 73 | 1014.8 |
| 20260506061608 | 64 | 344 | 4.0 | 8.0 | 0.00 | 0.00 | 0.00 | 73 | 1014.8 |
| 20260506061310 | 63 | 40 | 4.0 | 8.0 | 0.00 | 0.00 | 0.00 | 74 | 1014.8 |
| 20260506061104 | 63 | 0 | 4.0 | 8.0 | 0.00 | 0.00 | 0.00 | 74 | 1014.8 |
| 20260506060917 | 63 | 28 | 3.0 | 6.0 | 0.00 | 0.00 | 0.00 | 74 | 1014.6 |
| 20260506060827 | 62 | 24 | 3.0 | 6.0 | 0.00 | 0.00 | 0.00 | 75 | 1014.6 |
| 20260506060609 | 63 | 31 | 4.0 | 8.0 | 0.00 | 0.00 | 0.00 | 74 | 1014.8 |
| 20260506060125 | 63 | 0 | 4.0 | 8.0 | 0.00 | 0.00 | 0.00 | 74 | 1014.8 |
| 20260506051129 | 61 | 346 | 3.0 | 7.0 | 0.00 | 0.00 | 0.00 | 78 | 1014.7 |
| 20260506045036 | 60 | 347 | 1.0 | 5.0 | 0.00 | 0.00 | 0.00 | 80 | 1014.4 |
| 20260506044532 | 60 | 336 | 1.0 | 3.0 | 0.00 | 0.00 | 0.00 | 80 | 1014.4 |
| 20260506044043 | 60 | 325 | 1.0 | 3.0 | 0.00 | 0.00 | 0.00 | 80 | 1014.3 |
| 20260506043535 | 60 | 323 | 1.0 | 4.0 | 0.00 | 0.00 | 0.00 | 80 | 1014.3 |
| 20260506043036 | 60 | 313 | 0.0 | 4.0 | 0.00 | 0.00 | 0.00 | 80 | 1014.3 |
| 20260506042915 | 59 | 316 | 0.0 | 2.0 | 0.00 | 0.00 | 0.00 | 80 | 1014.3 |
| 20260506042027 | 59 | 322 | 0.0 | 3.0 | 0.00 | 0.00 | 0.00 | 80 | 1014.3 |
| 20260506041517 | 59 | 311 | 1.0 | 5.0 | 0.00 | 0.00 | 0.00 | 81 | 1014.3 |
| 20260506040956 | 58 | 294 | 1.0 | 5.0 | 0.00 | 0.00 | 0.00 | 81 | 1014.2 |
| 20260506040852 | 58 | 325 | 0.0 | 3.0 | 0.00 | 0.00 | 0.00 | 81 | 1014.2 |
| 20260506035934 | 58 | 357 | 0.0 | 2.0 | 0.00 | 0.00 | 0.00 | 80 | 1014.2 |
| 20260506035425 | 58 | 31 | 0.0 | 0.0 | 0.00 | 0.00 | 0.00 | 80 | 1014.0 |
| 20260506035317 | 58 | 31 | 0.0 | 0.0 | 0.00 | 0.00 | 0.00 | 79 | 1013.8 |
| 20260506035306 | 59 | 357 | 1.0 | 5.0 | 0.00 | 0.00 | 0.00 | 80 | 1013.6 |
| 20260506034949 | 58 | 31 | 0.0 | 0.0 | 0.00 | 0.00 | 0.00 | 80 | 1014.0 |
| 20260506033853 | 58 | 31 | 0.0 | 0.0 | 0.00 | 0.00 | 0.00 | 79 | 1013.8 |
| 20260506033516 | 58 | 285 | 0.0 | 2.0 | 0.00 | 0.00 | 0.00 | 78 | 1013.8 |
| 20260506033149 | 58 | 285 | 1.0 | 5.0 | 0.00 | 0.00 | 0.00 | 78 | 1013.7 |
| 20260506032726 | 59 | 294 | 2.0 | 5.0 | 0.00 | 0.00 | 0.00 | 78 | 1013.7 |
| 20260506032129 | 59 | 285 | 1.0 | 5.0 | 0.00 | 0.00 | 0.00 | 79 | 1013.7 |
| 20260506031602 | 59 | 278 | 1.0 | 5.0 | 0.00 | 0.00 | 0.00 | 78 | 1013.7 |
| 20260506031112 | 59 | 271 | 1.0 | 5.0 | 0.00 | 0.00 | 0.00 | 78 | 1013.7 |
| 20260506030633 | 59 | 280 | 1.0 | 5.0 | 0.00 | 0.00 | 0.00 | 79 | 1013.7 |
| 20260506030143 | 59 | 275 | 1.0 | 5.0 | 0.00 | 0.00 | 0.00 | 79 | 1013.6 |
| 20260506025620 | 59 | 271 | 1.0 | 5.0 | 0.00 | 0.00 | 0.00 | 79 | 1013.6 |
| 20260506024408 | 59 | 359 | 1.0 | 3.0 | 0.00 | 0.00 | 0.00 | 80 | 1013.6 |
| 20260506023830 | 59 | 357 | 0.0 | 5.0 | 0.00 | 0.00 | 0.00 | 80 | 1013.6 |
| 20260506023237 | 59 | 357 | 0.0 | 5.0 | 0.00 | 0.00 | 0.00 | 80 | 1013.6 |
| 20260506022733 | 59 | 357 | 1.0 | 4.0 | 0.00 | 0.00 | 0.00 | 80 | 1013.7 |
| 20260506022245 | 59 | 359 | 1.0 | 5.0 | 0.00 | 0.00 | 0.00 | 81 | 1013.7 |
| 20260506021723 | 59 | 359 | 2.0 | 5.0 | 0.00 | 0.00 | 0.00 | 81 | 1013.7 |
| 20260506021219 | 58 | 280 | 2.0 | 5.0 | 0.00 | 0.00 | 0.00 | 82 | 1013.8 |
| 20260506020705 | 58 | 272 | 1.0 | 5.0 | 0.00 | 0.00 | 0.00 | 83 | 1013.8 |
| 20260506020208 | 58 | 271 | 1.0 | 5.0 | 0.00 | 0.00 | 0.00 | 83 | 1013.8 |
| 20260506015708 | 58 | 285 | 1.0 | 5.0 | 0.00 | 0.00 | 0.00 | 84 | 1013.7 |
| 20260506015201 | 58 | 268 | 1.0 | 4.0 | 0.00 | 0.00 | 0.00 | 84 | 1013.7 |
| 20260506014704 | 58 | 239 | 2.0 | 5.0 | 0.00 | 0.00 | 0.00 | 85 | 1013.7 |
| 20260506014200 | 58 | 229 | 2.0 | 5.0 | 0.00 | 0.00 | 0.00 | 85 | 1013.7 |
| 20260506013655 | 58 | 256 | 1.0 | 5.0 | 0.00 | 0.00 | 0.00 | 85 | 1013.7 |
| 20260506013150 | 58 | 281 | 1.0 | 5.0 | 0.00 | 0.00 | 0.00 | 86 | 1013.7 |
| 20260506012827 | 58 | 241 | 1.0 | 5.0 | 0.00 | 0.00 | 0.00 | 86 | 1013.6 |
| 20260506012657 | 58 | 263 | 1.0 | 4.0 | 0.00 | 0.00 | 0.00 | 86 | 1013.6 |
| 20260506011652 | 58 | 248 | 1.0 | 5.0 | 0.00 | 0.00 | 0.00 | 86 | 1013.6 |
| 20260506011133 | 58 | 241 | 1.0 | 5.0 | 0.00 | 0.00 | 0.00 | 86 | 1013.7 |
| 20260506010631 | 58 | 253 | 1.0 | 5.0 | 0.00 | 0.00 | 0.00 | 87 | 1013.7 |
| 20260506010118 | 58 | 250 | 1.0 | 5.0 | 0.00 | 0.00 | 0.00 | 87 | 1013.7 |
| 20260506005828 | 58 | 253 | 0.0 | 3.0 | 0.00 | 0.00 | 0.00 | 88 | 1013.7 |
| 20260506005749 | 58 | 285 | 0.0 | 2.0 | 0.00 | 0.00 | 0.00 | 88 | 1013.7 |
| 20260506005624 | 58 | 256 | 1.0 | 5.0 | 0.00 | 0.00 | 0.00 | 87 | 1013.7 |
| 20260506005123 | 58 | 251 | 1.0 | 5.0 | 0.00 | 0.00 | 0.00 | 88 | 1013.7 |
| 20260506003535 | 58 | 356 | 0.0 | 3.0 | 0.00 | 0.00 | 0.00 | 89 | 1013.7 |
| 20260506003021 | 58 | 356 | 0.0 | 0.0 | 0.00 | 0.00 | 0.00 | 89 | 1013.7 |
| 20260506002510 | 58 | 357 | 0.0 | 2.0 | 0.00 | 0.00 | 0.00 | 90 | 1013.6 |
| 20260506002005 | 58 | 357 | 0.0 | 4.0 | 0.00 | 0.00 | 0.00 | 90 | 1013.6 |
| 20260506001451 | 58 | 357 | 1.0 | 4.0 | 0.00 | 0.00 | 0.00 | 90 | 1013.6 |
| 20260506000949 | 58 | 359 | 0.0 | 2.0 | 0.00 | 0.00 | 0.00 | 91 | 1013.6 |
| 20260506000450 | 58 | 357 | 0.0 | 0.0 | 0.00 | 0.00 | 0.00 | 91 | 1013.6 |
| 20260505235535 | 58 | 357 | 1.0 | 3.0 | 0.00 | 0.00 | 0.00 | 91 | 1013.6 |
| 20260505235120 | 58 | 357 | 1.0 | 4.0 | 0.00 | 0.00 | 0.00 | 91 | 1013.6 |
| 20260505235037 | 58 | 357 | 1.0 | 3.0 | 0.00 | 0.00 | 0.00 | 91 | 1013.6 |
| 20260505234024 | 58 | 359 | 1.0 | 4.0 | 0.00 | 0.00 | 0.00 | 91 | 1013.5 |
| 20260505233520 | 58 | 357 | 1.0 | 3.0 | 0.00 | 0.00 | 0.00 | 91 | 1013.5 |
| 20260505233017 | 58 | 357 | 1.0 | 3.0 | 0.00 | 0.00 | 0.00 | 91 | 1013.5 |
| 20260505232527 | 58 | 357 | 1.0 | 5.0 | 0.00 | 0.00 | 0.00 | 91 | 1013.6 |
| 20260505231948 | 58 | 359 | 1.0 | 5.0 | 0.00 | 0.00 | 0.00 | 91 | 1013.6 |
| 20260505231446 | 58 | 357 | 1.0 | 4.0 | 0.00 | 0.00 | 0.00 | 91 | 1013.6 |
| 20260505231007 | 58 | 356 | 1.0 | 4.0 | 0.00 | 0.00 | 0.00 | 91 | 1013.6 |
| 20260505230344 | 58 | 357 | 1.0 | 5.0 | 0.00 | 0.00 | 0.00 | 91 | 1013.6 |
| 20260505225853 | 58 | 357 | 1.0 | 5.0 | 0.00 | 0.00 | 0.00 | 91 | 1013.6 |
| 20260505225343 | 58 | 357 | 1.0 | 5.0 | 0.00 | 0.00 | 0.00 | 91 | 1013.6 |
| 20260505224404 | 58 | 357 | 1.0 | 5.0 | 0.00 | 0.00 | 0.00 | 91 | 1013.6 |
| 20260505223902 | 58 | 359 | 1.0 | 5.0 | 0.00 | 0.00 | 0.00 | 91 | 1013.6 |
| 20260505223405 | 58 | 357 | 1.0 | 5.0 | 0.00 | 0.00 | 0.00 | 91 | 1013.6 |
| 20260505222904 | 58 | 359 | 1.0 | 5.0 | 0.00 | 0.00 | 0.00 | 91 | 1013.6 |
| 20260505222811 | 58 | 357 | 0.0 | 4.0 | 0.00 | 0.00 | 0.00 | 91 | 1013.6 |
| 20260505221400 | 58 | 357 | 1.0 | 3.0 | 0.00 | 0.00 | 0.00 | 91 | 1013.5 |
| 20260505220907 | 58 | 357 | 1.0 | 3.0 | 0.00 | 0.00 | 0.00 | 91 | 1013.5 |
| 20260505220355 | 59 | 357 | 1.0 | 3.0 | 0.00 | 0.00 | 0.00 | 91 | 1013.5 |
| 20260505215854 | 59 | 359 | 1.0 | 3.0 | 0.00 | 0.00 | 0.00 | 91 | 1013.3 |
| 20260505215351 | 59 | 357 | 1.0 | 3.0 | 0.00 | 0.00 | 0.00 | 91 | 1013.3 |
| 20260505214849 | 59 | 357 | 1.0 | 3.0 | 0.00 | 0.00 | 0.00 | 91 | 1013.3 |
| 20260505214349 | 59 | 359 | 1.0 | 3.0 | 0.00 | 0.00 | 0.00 | 91 | 1013.2 |
| 20260505213835 | 59 | 357 | 1.0 | 5.0 | 0.00 | 0.00 | 0.00 | 91 | 1013.2 |
| 20260505213336 | 59 | 359 | 1.0 | 5.0 | 0.00 | 0.00 | 0.00 | 90 | 1013.2 |
| 20260505212826 | 59 | 281 | 1.0 | 4.0 | 0.00 | 0.00 | 0.00 | 90 | 1013.0 |
| 20260505212332 | 59 | 256 | 1.0 | 4.0 | 0.00 | 0.00 | 0.00 | 90 | 1013.1 |
| 20260505212105 | 60 | 233 | 1.0 | 5.0 | 0.00 | 0.00 | 0.00 | 89 | 1013.1 |
| 20260505211843 | 60 | 257 | 1.0 | 3.0 | 0.00 | 0.00 | 0.00 | 90 | 1013.1 |
| 20260505210827 | 60 | 257 | 1.0 | 6.0 | 0.00 | 0.00 | 0.00 | 89 | 1013.1 |
| 20260505210449 | 60 | 298 | 0.0 | 2.0 | 0.00 | 0.00 | 0.00 | 88 | 1013.1 |
| 20260505204815 | 60 | 260 | 0.0 | 3.0 | 0.00 | 0.00 | 0.00 | 88 | 1013.1 |
| 20260505204316 | 61 | 256 | 1.0 | 5.0 | 0.00 | 0.00 | 0.00 | 87 | 1013.0 |
| 20260505203823 | 61 | 287 | 1.0 | 5.0 | 0.00 | 0.00 | 0.00 | 87 | 1013.0 |
| 20260505203319 | 61 | 264 | 1.0 | 4.0 | 0.00 | 0.00 | 0.00 | 86 | 1013.0 |
| 20260505202814 | 61 | 277 | 1.0 | 6.0 | 0.00 | 0.00 | 0.00 | 86 | 1013.0 |
| 20260505202308 | 61 | 275 | 1.0 | 6.0 | 0.00 | 0.00 | 0.00 | 85 | 1013.0 |
| 20260505202023 | 61 | 260 | 1.0 | 7.0 | 0.00 | 0.00 | 0.00 | 84 | 1012.8 |
| 20260505201809 | 61 | 272 | 1.0 | 7.0 | 0.00 | 0.00 | 0.00 | 84 | 1013.0 |
| 20260505200759 | 61 | 230 | 1.0 | 7.0 | 0.00 | 0.00 | 0.00 | 84 | 1012.8 |
| 20260505200436 | 62 | 260 | 2.0 | 7.0 | 0.00 | 0.00 | 0.00 | 82 | 1012.7 |
| 20260505200302 | 61 | 216 | 1.0 | 5.0 | 0.00 | 0.00 | 0.00 | 83 | 1012.8 |
| 20260505195313 | 62 | 230 | 2.0 | 7.0 | 0.00 | 0.00 | 0.00 | 82 | 1012.7 |
| 20260505194925 | 62 | 192 | 1.0 | 6.0 | 0.00 | 0.00 | 0.00 | 81 | 1012.7 |
| 20260505194803 | 62 | 240 | 1.0 | 6.0 | 0.00 | 0.00 | 0.00 | 82 | 1012.7 |
| 20260505193757 | 62 | 200 | 1.0 | 7.0 | 0.00 | 0.00 | 0.00 | 81 | 1012.7 |
| 20260505193253 | 62 | 182 | 1.0 | 7.0 | 0.00 | 0.00 | 0.00 | 81 | 1012.7 |
| 20260505192752 | 62 | 202 | 1.0 | 8.0 | 0.00 | 0.00 | 0.00 | 80 | 1012.5 |
| 20260505192301 | 62 | 200 | 1.0 | 8.0 | 0.00 | 0.00 | 0.00 | 80 | 1012.5 |
| 20260505191755 | 62 | 160 | 2.0 | 6.0 | 0.00 | 0.00 | 0.00 | 79 | 1012.5 |
| 20260505191255 | 62 | 193 | 2.0 | 6.0 | 0.00 | 0.00 | 0.00 | 78 | 1012.4 |
| 20260505191154 | 62 | 172 | 2.0 | 7.0 | 0.00 | 0.00 | 0.00 | 76 | 1012.4 |
| 20260505190807 | 62 | 208 | 2.0 | 7.0 | 0.00 | 0.00 | 0.00 | 77 | 1012.4 |
| 20260505185748 | 62 | 222 | 2.0 | 8.0 | 0.00 | 0.00 | 0.00 | 76 | 1012.2 |
| 20260505185256 | 63 | 202 | 1.0 | 8.0 | 0.00 | 0.00 | 0.00 | 76 | 1012.2 |
| 20260505184753 | 62 | 202 | 1.0 | 6.0 | 0.00 | 0.00 | 0.00 | 75 | 1012.2 |
| 20260505184250 | 62 | 203 | 1.0 | 6.0 | 0.00 | 0.00 | 0.00 | 75 | 1012.0 |
| 20260505183737 | 62 | 196 | 1.0 | 6.0 | 0.00 | 0.00 | 0.00 | 75 | 1012.0 |
| 20260505183243 | 62 | 210 | 2.0 | 6.0 | 0.00 | 0.00 | 0.00 | 76 | 1012.0 |
| 20260505182731 | 62 | 213 | 1.0 | 6.0 | 0.00 | 0.00 | 0.00 | 77 | 1011.8 |
| 20260505182227 | 62 | 210 | 1.0 | 6.0 | 0.00 | 0.00 | 0.00 | 77 | 1011.8 |
| 20260505181724 | 62 | 182 | 1.0 | 6.0 | 0.00 | 0.00 | 0.00 | 78 | 1011.8 |
| 20260505181225 | 63 | 200 | 1.0 | 6.0 | 0.00 | 0.00 | 0.00 | 78 | 1011.7 |
| 20260505180718 | 63 | 176 | 2.0 | 7.0 | 0.00 | 0.00 | 0.00 | 79 | 1011.7 |
| 20260505180209 | 63 | 184 | 3.0 | 11.0 | 0.00 | 0.00 | 0.00 | 79 | 1011.7 |
| 20260505175704 | 63 | 186 | 3.0 | 11.0 | 0.00 | 0.00 | 0.00 | 80 | 1011.6 |
| 20260505175211 | 62 | 205 | 4.0 | 13.0 | 0.00 | 0.00 | 0.00 | 81 | 1011.6 |
| 20260505174707 | 62 | 217 | 3.0 | 13.0 | 0.00 | 0.00 | 0.00 | 83 | 1011.6 |
| 20260505174312 | 63 | 356 | 2.0 | 10.0 | 0.00 | 0.00 | 0.00 | 87 | 1011.3 |
| 20260505174205 | 62 | 154 | 2.0 | 7.0 | 0.00 | 0.00 | 0.00 | 85 | 1011.6 |
| 20260505173736 | 63 | 253 | 2.0 | 8.0 | 0.00 | 0.00 | 0.00 | 86 | 1011.6 |
| 20260505173209 | 63 | 167 | 2.0 | 10.0 | 0.00 | 0.00 | 0.00 | 86 | 1011.6 |
| 20260505172202 | 63 | 353 | 1.0 | 5.0 | 0.00 | 0.00 | 0.00 | 87 | 1011.3 |
| 20260505171652 | 64 | 354 | 2.0 | 7.0 | 0.00 | 0.00 | 0.00 | 86 | 1011.3 |
| 20260505171644 | 64 | 356 | 2.0 | 7.0 | 0.00 | 0.00 | 0.00 | 86 | 1011.4 |
| 20260505170649 | 64 | 356 | 3.0 | 7.0 | 0.00 | 0.00 | 0.00 | 85 | 1011.4 |
| 20260505170154 | 65 | 120 | 4.0 | 7.0 | 0.00 | 0.00 | 0.00 | 84 | 1011.4 |
| 20260505165848 | 66 | 128 | 5.0 | 12.0 | 0.00 | 0.00 | 0.00 | 78 | 1011.3 |
| 20260505165650 | 65 | 124 | 4.0 | 11.0 | 0.00 | 0.00 | 0.00 | 81 | 1011.2 |
| 20260505164642 | 67 | 150 | 5.0 | 12.0 | 0.00 | 0.00 | 0.00 | 74 | 1011.3 |
| 20260505164141 | 69 | 121 | 5.0 | 11.0 | 0.00 | 0.00 | 0.00 | 69 | 1011.1 |
| 20260505163647 | 71 | 171 | 4.0 | 11.0 | 0.00 | 0.00 | 0.00 | 64 | 1011.1 |
| 20260505163147 | 73 | 136 | 3.0 | 12.0 | 0.00 | 0.00 | 0.00 | 54 | 1011.1 |
| 20260505162647 | 74 | 119 | 2.0 | 12.0 | 0.00 | 0.00 | 0.00 | 46 | 1010.9 |
| 20260505162143 | 77 | 88 | 0.0 | 5.0 | 0.00 | 0.00 | 0.00 | 31 | 1010.9 |
| 20260505161639 | 78 | 171 | 0.0 | 5.0 | 0.00 | 0.00 | 0.00 | 30 | 1010.9 |
| 20260505161121 | 78 | 203 | 0.0 | 5.0 | 0.00 | 0.00 | 0.00 | 29 | 1010.9 |
| 20260505160623 | 78 | 217 | 0.0 | 6.0 | 0.00 | 0.00 | 0.00 | 29 | 1010.9 |
| 20260505160121 | 78 | 208 | 1.0 | 6.0 | 0.00 | 0.00 | 0.00 | 28 | 1010.9 |
| 20260505160106 | 79 | 191 | 1.0 | 6.0 | 0.00 | 0.00 | 0.00 | 27 | 1010.9 |
| 20260505152607 | 80 | 193 | 2.0 | 12.0 | 0.00 | 0.00 | 0.00 | 27 | 1011.1 |
| 20260505152115 | 80 | 185 | 2.0 | 12.0 | 0.00 | 0.00 | 0.00 | 28 | 1011.1 |
| 20260505151557 | 80 | 184 | 2.0 | 11.0 | 0.00 | 0.00 | 0.00 | 28 | 1011.1 |
| 20260505151055 | 80 | 209 | 2.0 | 8.0 | 0.00 | 0.00 | 0.00 | 28 | 1011.3 |
| 20260505150754 | 80 | 241 | 2.0 | 8.0 | 0.00 | 0.00 | 0.00 | 28 | 1011.3 |
| 20260505150609 | 80 | 189 | 3.0 | 8.0 | 0.00 | 0.00 | 0.00 | 27 | 1011.3 |